Regional Weather Roundup
Issued by NWS

Home | Current Version | Previous Version | Text Only | Print | Product List | Glossary Off
Versions: 1 2 3 4 5 6 7 8 9 10 11 12 13 14 15 16 17 18 19 20 21 22 23 24 25 26 27 28 29 30 31 32 33 34 35 36 37 38 39 40 41 42 43 44 45 46 47 48 49 50

295
ASUS43 KDMX 011208
RWRIA

WEATHER ROUNDUP FOR IOWA
NATIONAL WEATHER SERVICE DES MOINES IA
700 AM CDT SUN MAY 01 2016

NOTE: "FAIR" INDICATES FEW OR NO CLOUDS BELOW 12,000 FEET WITH NO
SIGNIFICANT WEATHER AND/OR OBSTRUCTIONS TO VISIBILITY.

* - THESE STATIONS ARE NOT NWS STATIONS...THUS NOT UNDER NWS
QUALITY CONTROL.  THEY ALSO DO NOT REPORT WEATHER SUCH
AS PRECIPITATION OR FOG.

IAZ001>003-012>014-020>022-031>034-043>046-011300-
   NORTHWEST IOWA

CITY           SKY/WX    TMP DP  RH WIND       PRES   REMARKS
CARROLL *      CLOUDY    43  43 100 NE17      29.99R
CHEROKEE *     CLOUDY    42  41  98 NE9       30.06R
DENISON *      CLOUDY    43  41  93 NE14G20   29.97R
LE MARS *      LGT RAIN  43  41  93 NE10      30.08R
ORANGE CITY *  LGT RAIN  43  41  93 NE9G20    30.07R
SHELDON *      CLOUDY    43  41  93 NE20G26   30.07R
SIOUX CITY     LGT RAIN  44  40  85 NE13      30.05R
6HR MIN TEMP:  44; 6HR MAX TEMP:  45; 6HR PCP:  0.26;

SPENCER        CLOUDY    42  40  92 NE17      30.07R FOG
6HR MIN TEMP:  42; 6HR MAX TEMP:  42; 6HR PCP: TRACE;

STORM LAKE *   CLOUDY    41  41 100 NE23G31   30.03R FOG
$$

IAZ055>058-069>071-079>083-090>094-011300-
   SOUTHWEST IOWA

CITY           SKY/WX    TMP DP  RH WIND       PRES   REMARKS
ATLANTIC *     CLOUDY    45  43  93 NE12      29.96R
AUDUBON *      CLOUDY    43  41  93 NE12      29.98R
CLARINDA *       N/A    N/A N/A N/A MISG        N/A
COUNCIL BLFS * CLOUDY    45  43  93 NE9       29.97R
CRESTON *      MIX PCPN  45  45 100 NE14      29.95R
HARLAN  *      CLOUDY    45  43  93 NE14      30.00R
LAMONI         FOG       45  45 100 NE12      29.92R VSB 1/4
6HR MIN TEMP:  45; 6HR MAX TEMP:  47;

RED OAK *      CLOUDY    46  45  93 NE12      29.95R
SHENANDOAH *   CLOUDY    46  46 100 NE10      29.95R
$$

IAZ047>049-059>061-072>074-084-011300-
   CENTRAL IOWA

CITY           SKY/WX    TMP DP  RH WIND       PRES   REMARKS
AMES           CLOUDY    44  42  93 NE13      29.99R
6HR MIN TEMP:  44; 6HR MAX TEMP:  44;

ANKENY *       CLOUDY    45  45 100 NE10      29.97S
BOONE *        CLOUDY    43  43 100 NE15      29.98S FOG
CHARITON *     CLOUDY    45  45 100 NE9       29.95R
DES MOINES     CLOUDY    46  42  86 NE10      29.97R
6HR MIN TEMP:  45; 6HR MAX TEMP:  46; 6HR PCP:  0.01;

GRINNELL*      CLOUDY    45  43  93 NE9       29.98R FOG
KNOXVILLE *    CLOUDY    45  43  93 NE9G16    29.94R FOG
MARSHALLTOWN   CLOUDY    44  42  93 NE14      29.98R
6HR MIN TEMP:  44; 6HR MAX TEMP:  44; 6HR PCP:  0.01;

NEWTON *       CLOUDY    45  45 100 NE12      29.97R
PELLA *        CLOUDY    45  44  97 E7        29.97R FOG
$$

IAZ004>006-015-016-023>025-035-036-011300-
   NORTH CENTRAL IOWA

CITY           SKY/WX    TMP DP  RH WIND       PRES   REMARKS
ALGONA *       MOCLDY    43  41  93 NE14G20   30.06R FOG
CLARION *      CLOUDY    43  43 100 NE17G24   30.03R
ESTHERVILLE    CLOUDY    41  40  96 N14       30.08R
6HR MIN TEMP:  41; 6HR MAX TEMP:  42; 6HR PCP:  0.02;

FORT DODGE *   CLOUDY    43  37  81 NE12G20   30.02R
MASON CITY     CLOUDY    43  39  86 NE23G30   30.06R
6HR MIN TEMP:  41; 6HR MAX TEMP:  43; 6HR PCP:  0.06;

FOREST CITY *  DRIZZLE   41  41 100 NE13      30.06R
WEBSTER CITY * CLOUDY    43  43 100 NE17      29.99R
IOWA FALLS *   CLOUDY    43  41  93 NE15      30.01S
$$

IAZ007>011-017>019-026>030-037>042-050>054-066-011300-
   NORTHEAST IOWA

CITY           SKY/WX    TMP DP  RH WIND       PRES   REMARKS
CEDAR RAPIDS   CLOUDY    45  45 100 NE12      29.96R
6HR MIN TEMP:  44; 6HR MAX TEMP:  45; 6HR PCP:  0.02;

CHARLES CITY * CLOUDY    45  41  87 NE16G22   30.04R
CLINTON *      CLOUDY    46  45  96 NE12      29.97R
DECORAH *      CLOUDY    43  39  87 NE10      30.04R
DUBUQUE        CLOUDY    42  41  96 NE12      29.98S FOG
6HR MIN TEMP:  42; 6HR MAX TEMP:  44;

MONTICELLO *   CLOUDY    45  43  93 NE9G15    29.98R
OELWEIN *      CLOUDY    43  43 100 NE14      30.01R
WATERLOO       CLOUDY    43  40  89 NE12      30.00S
6HR MIN TEMP:  43; 6HR MAX TEMP:  44;

$$

IAZ064-065-067-068-078-011300-
   EAST CENTRAL IOWA

CITY           SKY/WX    TMP DP  RH WIND       PRES   REMARKS
DAVENPORT      CLOUDY    46  45  96 NE9       29.97R FOG
6HR MIN TEMP:  45; 6HR MAX TEMP:  46;

IOWA CITY      CLOUDY    46  44  93 NE10      29.98R
6HR MIN TEMP:  45; 6HR MAX TEMP:  46;

MT. PLEASANT * FOG       48  48 100 NE9       29.96R VSB 3/4
MUSCATINE *    CLOUDY    46  45  93 NE10      29.97R FOG
QUAD CITIES    CLOUDY    48  45  89 NE8       29.95R FOG
6HR MIN TEMP:  47; 6HR MAX TEMP:  48;

$$

IAZ062-063-075>077-085>089-095>099-011300-
   SOUTHEAST IOWA

CITY           SKY/WX    TMP DP  RH WIND       PRES   REMARKS
BURLINGTON     CLOUDY    47  47 100 NE7       29.93R FOG
6HR MIN TEMP:  47; 6HR MAX TEMP:  47;

FAIRFIELD *    FOG       45  45 100 E8        29.96R VSB 3/4
FORT MADISON * FOG       46  46 100 NE6       29.94S VSB 3/4
KEOKUK *       CLOUDY    48  48 100 NE7       29.94R FOG
OSKALOOSA *    CLOUDY    44  43  98 NE9       29.96R FOG
OTTUMWA        CLOUDY    45  44  97 NE8       29.95R FOG
6HR MIN TEMP:  45; 6HR MAX TEMP:  45;

WASHINGTON *   CLOUDY    46  46 100 NE13      29.96R FOG
$$

ABBREVIATIONS USED IN REMARKS
   TC - TEMPERATURES IN CELSIUS
  WCI - WIND CHILL INDEX
   HX - HEAT INDEX
  VSB - VISIBILITY
$$





USA.gov is the U.S. government's official web portal to all federal, state and local government web resources and services.